User: anonymous   Login
Location: Tel Aviv
(32.0670°N, 34.7670°E)
Time: 23:38:12
(UTC+03:00)
Language:

ZACube-1 - Orbit

View from above orbital plane
View from above orbital plane
View from above satellite
View from above satellite

Ground track
Ground track

The orbit data is extracted from the following two-line orbital elements,

1 39417U 13066B   23089.37779639  .00006402  00000-0  74929-3 0  9999
2 39417  97.6772  53.8843 0055268 184.6697 175.4010 14.84279843505505
Epoch (UTC): 30 March 2023 09:04:01
Eccentricity: 0.0055268
inclination: 97.6772°
perigee height: 577 km
apogee height: 654 km
right ascension of ascending node: 53.8843°
argument of perigee: 184.6697°
revolutions per day: 14.84279843
mean anomaly at epoch: 175.4010°
orbit number at epoch: 50550

The dashed part of the orbit path shows where the satellite is in the earth's shadow,  

DLR